owner,sensor,date,latitude,longitude,relative_humidity,qcFlag 
LUMCON,ioos:station:LUMCON:105:1,2009-10-01T00:00:00Z,29.1874,-90.6654,49.9,1111122 
LUMCON,ioos:station:LUMCON:105:1,2009-10-01T01:00:00Z,29.1874,-90.6654,52.8,1111122 
LUMCON,ioos:station:LUMCON:105:1,2009-10-01T02:00:00Z,29.1874,-90.6654,52.5,1111122 
LUMCON,ioos:station:LUMCON:105:1,2009-10-01T03:00:00Z,29.1874,-90.6654,58.0,1111122 
LUMCON,ioos:station:LUMCON:105:1,2009-10-01T04:00:00Z,29.1874,-90.6654,59.1,1111122 
LUMCON,ioos:station:LUMCON:105:1,2009-10-01T05:00:00Z,29.1874,-90.6654,57.4,1111122 
LUMCON,ioos:station:LUMCON:105:1,2009-10-01T06:00:00Z,29.1874,-90.6654,58.1,1111122 
LUMCON,ioos:station:LUMCON:105:1,2009-10-01T07:00:00Z,29.1874,-90.6654,61.5,1111122 
LUMCON,ioos:station:LUMCON:105:1,2009-10-01T08:00:00Z,29.1874,-90.6654,62.3,1111122 
LUMCON,ioos:station:LUMCON:105:1,2009-10-01T09:00:00Z,29.1874,-90.6654,69.5,1111122 
LUMCON,ioos:station:LUMCON:105:1,2009-10-01T10:00:00Z,29.1874,-90.6654,69.6,1111122 
LUMCON,ioos:station:LUMCON:105:1,2009-10-01T11:00:00Z,29.1874,-90.6654,61.4,1111122 
LUMCON,ioos:station:LUMCON:105:1,2009-10-01T12:00:00Z,29.1874,-90.6654,64.4,1111122 
LUMCON,ioos:station:LUMCON:105:1,2009-10-01T13:00:00Z,29.1874,-90.6654,62.9,1111122 
LUMCON,ioos:station:LUMCON:105:1,2009-10-01T14:00:00Z,29.1874,-90.6654,55.6,1111122 
LUMCON,ioos:station:LUMCON:105:1,2009-10-01T15:00:00Z,29.1874,-90.6654,54.9,1111122 
LUMCON,ioos:station:LUMCON:105:1,2009-10-01T16:00:00Z,29.1874,-90.6654,55.7,1111122 
LUMCON,ioos:station:LUMCON:105:1,2009-10-01T17:00:00Z,29.1874,-90.6654,56.5,1111122 
LUMCON,ioos:station:LUMCON:105:1,2009-10-01T18:00:00Z,29.1874,-90.6654,56.9,1111122 
LUMCON,ioos:station:LUMCON:105:1,2009-10-01T20:00:00Z,29.1874,-90.6654,62.2,1111122 
LUMCON,ioos:station:LUMCON:105:1,2009-10-01T21:00:00Z,29.1874,-90.6654,63.4,1111122 
LUMCON,ioos:station:LUMCON:105:1,2009-10-01T22:00:00Z,29.1874,-90.6654,63.9,1111122 
LUMCON,ioos:station:LUMCON:105:1,2009-10-01T23:00:00Z,29.1874,-90.6654,64.7,1111122 
LUMCON,ioos:station:LUMCON:105:1,2009-10-02T00:00:00Z,29.1874,-90.6654,66.7,1111122 
LUMCON,ioos:station:LUMCON:105:1,2009-10-02T01:00:00Z,29.1874,-90.6654,70.5,1111122 
LUMCON,ioos:station:LUMCON:105:1,2009-10-02T02:00:00Z,29.1874,-90.6654,72.2,1111122 
LUMCON,ioos:station:LUMCON:105:1,2009-10-02T03:00:00Z,29.1874,-90.6654,72.2,1111122 
LUMCON,ioos:station:LUMCON:105:1,2009-10-02T04:00:00Z,29.1874,-90.6654,75.4,1111122 
LUMCON,ioos:station:LUMCON:105:1,2009-10-02T05:00:00Z,29.1874,-90.6654,76.3,1111122 
LUMCON,ioos:station:LUMCON:105:1,2009-10-02T06:00:00Z,29.1874,-90.6654,77.3,1111122 
LUMCON,ioos:station:LUMCON:105:1,2009-10-02T07:00:00Z,29.1874,-90.6654,78.7,1111122 
LUMCON,ioos:station:LUMCON:105:1,2009-10-02T08:00:00Z,29.1874,-90.6654,79.2,1111122 
LUMCON,ioos:station:LUMCON:105:1,2009-10-02T09:00:00Z,29.1874,-90.6654,79.7,1111122 
LUMCON,ioos:station:LUMCON:105:1,2009-10-02T10:00:00Z,29.1874,-90.6654,84.0,1111122 
LUMCON,ioos:station:LUMCON:105:1,2009-10-02T11:00:00Z,29.1874,-90.6654,90.3,1111122 
LUMCON,ioos:station:LUMCON:105:1,2009-10-02T12:00:00Z,29.1874,-90.6654,90.2,1111122 
LUMCON,ioos:station:LUMCON:105:1,2009-10-02T13:00:00Z,29.1874,-90.6654,90.1,1111122 
LUMCON,ioos:station:LUMCON:105:1,2009-10-02T14:00:00Z,29.1874,-90.6654,92.3,1111122 
LUMCON,ioos:station:LUMCON:105:1,2009-10-02T15:00:00Z,29.1874,-90.6654,89.6,1111122 
LUMCON,ioos:station:LUMCON:105:1,2009-10-02T16:00:00Z,29.1874,-90.6654,87.5,1111122 
LUMCON,ioos:station:LUMCON:105:1,2009-10-02T17:00:00Z,29.1874,-90.6654,80.4,1111122 
LUMCON,ioos:station:LUMCON:105:1,2009-10-02T18:00:00Z,29.1874,-90.6654,80.9,1111122 
LUMCON,ioos:station:LUMCON:105:1,2009-10-02T19:00:00Z,29.1874,-90.6654,78.1,1111122 
LUMCON,ioos:station:LUMCON:105:1,2009-10-02T20:00:00Z,29.1874,-90.6654,79.6,1111122 
LUMCON,ioos:station:LUMCON:105:1,2009-10-02T21:00:00Z,29.1874,-90.6654,78.7,1111122 
LUMCON,ioos:station:LUMCON:105:1,2009-10-02T22:00:00Z,29.1874,-90.6654,77.7,1111122 
LUMCON,ioos:station:LUMCON:105:1,2009-10-02T23:00:00Z,29.1874,-90.6654,74.6,1111122 
LUMCON,ioos:station:LUMCON:105:1,2009-10-03T00:00:00Z,29.1874,-90.6654,79.2,1111122 
LUMCON,ioos:station:LUMCON:105:1,2009-10-03T01:00:00Z,29.1874,-90.6654,80.6,1111122 
LUMCON,ioos:station:LUMCON:105:1,2009-10-03T02:00:00Z,29.1874,-90.6654,82.5,1111122 
LUMCON,ioos:station:LUMCON:105:1,2009-10-03T03:00:00Z,29.1874,-90.6654,85.0,1111122 
LUMCON,ioos:station:LUMCON:105:1,2009-10-03T04:00:00Z,29.1874,-90.6654,86.0,1111122 
LUMCON,ioos:station:LUMCON:105:1,2009-10-03T05:00:00Z,29.1874,-90.6654,84.5,1111122 
LUMCON,ioos:station:LUMCON:105:1,2009-10-03T06:00:00Z,29.1874,-90.6654,84.5,1111122 
LUMCON,ioos:station:LUMCON:105:1,2009-10-03T07:00:00Z,29.1874,-90.6654,86.0,1111122 
LUMCON,ioos:station:LUMCON:105:1,2009-10-03T08:00:00Z,29.1874,-90.6654,83.9,1111122 
LUMCON,ioos:station:LUMCON:105:1,2009-10-03T09:00:00Z,29.1874,-90.6654,83.4,1111122 
LUMCON,ioos:station:LUMCON:105:1,2009-10-03T10:00:00Z,29.1874,-90.6654,86.0,1111122 
LUMCON,ioos:station:LUMCON:105:1,2009-10-03T11:00:00Z,29.1874,-90.6654,87.0,1111122 
LUMCON,ioos:station:LUMCON:105:1,2009-10-03T12:00:00Z,29.1874,-90.6654,87.0,1111122 
LUMCON,ioos:station:LUMCON:105:1,2009-10-03T13:00:00Z,29.1874,-90.6654,82.4,1111122 
LUMCON,ioos:station:LUMCON:105:1,2009-10-03T14:00:00Z,29.1874,-90.6654,77.0,1111122 
LUMCON,ioos:station:LUMCON:105:1,2009-10-03T15:00:00Z,29.1874,-90.6654,75.2,1111122 
LUMCON,ioos:station:LUMCON:105:1,2009-10-03T16:00:00Z,29.1874,-90.6654,76.2,1111122 
LUMCON,ioos:station:LUMCON:105:1,2009-10-03T17:00:00Z,29.1874,-90.6654,78.1,1111122 
LUMCON,ioos:station:LUMCON:105:1,2009-10-03T18:00:00Z,29.1874,-90.6654,74.5,1111122 
LUMCON,ioos:station:LUMCON:105:1,2009-10-03T19:00:00Z,29.1874,-90.6654,74.5,1111122 
LUMCON,ioos:station:LUMCON:105:1,2009-10-03T20:00:00Z,29.1874,-90.6654,75.0,1111122 
LUMCON,ioos:station:LUMCON:105:1,2009-10-03T21:00:00Z,29.1874,-90.6654,76.9,1111122 
LUMCON,ioos:station:LUMCON:105:1,2009-10-03T22:00:00Z,29.1874,-90.6654,76.9,1111122 
LUMCON,ioos:station:LUMCON:105:1,2009-10-03T23:00:00Z,29.1874,-90.6654,77.8,1111122 
LUMCON,ioos:station:LUMCON:105:1,2009-10-04T00:00:00Z,29.1874,-90.6654,77.8,1111122 
LUMCON,ioos:station:LUMCON:105:1,2009-10-04T01:00:00Z,29.1874,-90.6654,79.3,1111122 
LUMCON,ioos:station:LUMCON:105:1,2009-10-04T02:00:00Z,29.1874,-90.6654,78.3,1111122 
LUMCON,ioos:station:LUMCON:105:1,2009-10-04T03:00:00Z,29.1874,-90.6654,79.7,1111122 
LUMCON,ioos:station:LUMCON:105:1,2009-10-04T04:00:00Z,29.1874,-90.6654,82.7,1111122 
LUMCON,ioos:station:LUMCON:105:1,2009-10-04T05:00:00Z,29.1874,-90.6654,84.2,1111122 
LUMCON,ioos:station:LUMCON:105:1,2009-10-04T06:00:00Z,29.1874,-90.6654,84.2,1111122 
LUMCON,ioos:station:LUMCON:105:1,2009-10-04T07:00:00Z,29.1874,-90.6654,84.6,1111122 
LUMCON,ioos:station:LUMCON:105:1,2009-10-04T08:00:00Z,29.1874,-90.6654,84.6,1111122 
LUMCON,ioos:station:LUMCON:105:1,2009-10-04T09:00:00Z,29.1874,-90.6654,86.2,1111122 
LUMCON,ioos:station:LUMCON:105:1,2009-10-04T10:00:00Z,29.1874,-90.6654,84.2,1111122 
LUMCON,ioos:station:LUMCON:105:1,2009-10-04T11:00:00Z,29.1874,-90.6654,82.7,1111122 
LUMCON,ioos:station:LUMCON:105:1,2009-10-04T12:00:00Z,29.1874,-90.6654,83.2,1111122 
LUMCON,ioos:station:LUMCON:105:1,2009-10-04T13:00:00Z,29.1874,-90.6654,85.2,1111122 
LUMCON,ioos:station:LUMCON:105:1,2009-10-04T14:00:00Z,29.1874,-90.6654,86.2,1111122 
LUMCON,ioos:station:LUMCON:105:1,2009-10-04T15:00:00Z,29.1874,-90.6654,84.7,1111122 
LUMCON,ioos:station:LUMCON:105:1,2009-10-04T16:00:00Z,29.1874,-90.6654,85.1,1111122 
LUMCON,ioos:station:LUMCON:105:1,2009-10-04T17:00:00Z,29.1874,-90.6654,85.7,1111122 
LUMCON,ioos:station:LUMCON:105:1,2009-10-04T18:00:00Z,29.1874,-90.6654,87.3,1111122 
LUMCON,ioos:station:LUMCON:105:1,2009-10-04T19:00:00Z,29.1874,-90.6654,83.8,1111122 
LUMCON,ioos:station:LUMCON:105:1,2009-10-04T20:00:00Z,29.1874,-90.6654,84.3,1111122 
LUMCON,ioos:station:LUMCON:105:1,2009-10-04T21:00:00Z,29.1874,-90.6654,87.7,1111122 
LUMCON,ioos:station:LUMCON:105:1,2009-10-04T22:00:00Z,29.1874,-90.6654,85.1,1111122 
LUMCON,ioos:station:LUMCON:105:1,2009-10-04T23:00:00Z,29.1874,-90.6654,88.9,1111122 
LUMCON,ioos:station:LUMCON:105:1,2009-10-05T00:00:00Z,29.1874,-90.6654,88.3,1111122 
LUMCON,ioos:station:LUMCON:105:1,2009-10-05T01:00:00Z,29.1874,-90.6654,86.3,1111122 
LUMCON,ioos:station:LUMCON:105:1,2009-10-05T02:00:00Z,29.1874,-90.6654,86.8,1111122 
LUMCON,ioos:station:LUMCON:105:1,2009-10-05T03:00:00Z,29.1874,-90.6654,87.8,1111122 
LUMCON,ioos:station:LUMCON:105:1,2009-10-05T04:00:00Z,29.1874,-90.6654,90.5,1111122 
LUMCON,ioos:station:LUMCON:105:1,2009-10-05T05:00:00Z,29.1874,-90.6654,92.1,1111122 
LUMCON,ioos:station:LUMCON:105:1,2009-10-05T06:00:00Z,29.1874,-90.6654,91.6,1111122 
LUMCON,ioos:station:LUMCON:105:1,2009-10-05T07:00:00Z,29.1874,-90.6654,92.6,1111122 
LUMCON,ioos:station:LUMCON:105:1,2009-10-05T08:00:00Z,29.1874,-90.6654,89.9,1111122 
LUMCON,ioos:station:LUMCON:105:1,2009-10-05T09:00:00Z,29.1874,-90.6654,90.4,1111122 
LUMCON,ioos:station:LUMCON:105:1,2009-10-05T10:00:00Z,29.1874,-90.6654,90.4,1111122 
LUMCON,ioos:station:LUMCON:105:1,2009-10-05T11:00:00Z,29.1874,-90.6654,90.4,1111122 
LUMCON,ioos:station:LUMCON:105:1,2009-10-05T12:00:00Z,29.1874,-90.6654,89.9,1111122 
LUMCON,ioos:station:LUMCON:105:1,2009-10-05T13:00:00Z,29.1874,-90.6654,89.4,1111122 
LUMCON,ioos:station:LUMCON:105:1,2009-10-05T14:00:00Z,29.1874,-90.6654,88.4,1111122 
LUMCON,ioos:station:LUMCON:105:1,2009-10-05T15:00:00Z,29.1874,-90.6654,86.8,1111122 
LUMCON,ioos:station:LUMCON:105:1,2009-10-05T16:00:00Z,29.1874,-90.6654,85.8,1111122 
LUMCON,ioos:station:LUMCON:105:1,2009-10-05T17:00:00Z,29.1874,-90.6654,85.3,1111122 
LUMCON,ioos:station:LUMCON:105:1,2009-10-05T18:00:00Z,29.1874,-90.6654,84.8,1111122 
LUMCON,ioos:station:LUMCON:105:1,2009-10-05T19:00:00Z,29.1874,-90.6654,83.9,1111122 
LUMCON,ioos:station:LUMCON:105:1,2009-10-05T20:00:00Z,29.1874,-90.6654,82.9,1111122 
LUMCON,ioos:station:LUMCON:105:1,2009-10-05T21:00:00Z,29.1874,-90.6654,81.9,1111122 
LUMCON,ioos:station:LUMCON:105:1,2009-10-05T22:00:00Z,29.1874,-90.6654,80.9,1111122 
LUMCON,ioos:station:LUMCON:105:1,2009-10-05T23:00:00Z,29.1874,-90.6654,83.8,1111122 
LUMCON,ioos:station:LUMCON:105:1,2009-10-06T00:00:00Z,29.1874,-90.6654,85.3,1111122 
LUMCON,ioos:station:LUMCON:105:1,2009-10-06T01:00:00Z,29.1874,-90.6654,88.9,1111122 
LUMCON,ioos:station:LUMCON:105:1,2009-10-06T03:00:00Z,29.1874,-90.6654,91.6,1111122 
LUMCON,ioos:station:LUMCON:105:1,2009-10-06T04:00:00Z,29.1874,-90.6654,92.6,1111122 
LUMCON,ioos:station:LUMCON:105:1,2009-10-06T05:00:00Z,29.1874,-90.6654,92.6,1111122 
LUMCON,ioos:station:LUMCON:105:1,2009-10-06T06:00:00Z,29.1874,-90.6654,92.1,1111122 
LUMCON,ioos:station:LUMCON:105:1,2009-10-06T07:00:00Z,29.1874,-90.6654,91.5,1111122 
LUMCON,ioos:station:LUMCON:105:1,2009-10-06T08:00:00Z,29.1874,-90.6654,91.5,1111122 
LUMCON,ioos:station:LUMCON:105:1,2009-10-06T09:00:00Z,29.1874,-90.6654,92.6,1111122 
LUMCON,ioos:station:LUMCON:105:1,2009-10-06T10:00:00Z,29.1874,-90.6654,92.6,1111122 
LUMCON,ioos:station:LUMCON:105:1,2009-10-06T11:00:00Z,29.1874,-90.6654,93.2,1111122 
LUMCON,ioos:station:LUMCON:105:1,2009-10-06T12:00:00Z,29.1874,-90.6654,93.7,1111122 
LUMCON,ioos:station:LUMCON:105:1,2009-10-06T13:00:00Z,29.1874,-90.6654,93.2,1111122 
LUMCON,ioos:station:LUMCON:105:1,2009-10-06T14:00:00Z,29.1874,-90.6654,92.1,1111122 
LUMCON,ioos:station:LUMCON:105:1,2009-10-06T15:00:00Z,29.1874,-90.6654,90.0,1111122 
LUMCON,ioos:station:LUMCON:105:1,2009-10-06T17:00:00Z,29.1874,-90.6654,85.4,1111122 
LUMCON,ioos:station:LUMCON:105:1,2009-10-06T18:00:00Z,29.1874,-90.6654,82.5,1111122 
LUMCON,ioos:station:LUMCON:105:1,2009-10-06T19:00:00Z,29.1874,-90.6654,80.1,1111122 
LUMCON,ioos:station:LUMCON:105:1,2009-10-06T20:00:00Z,29.1874,-90.6654,77.8,1111122 
LUMCON,ioos:station:LUMCON:105:1,2009-10-06T21:00:00Z,29.1874,-90.6654,77.3,1111122 
LUMCON,ioos:station:LUMCON:105:1,2009-10-06T22:00:00Z,29.1874,-90.6654,77.3,1111122 
LUMCON,ioos:station:LUMCON:105:1,2009-10-06T23:00:00Z,29.1874,-90.6654,79.2,1111122 
LUMCON,ioos:station:LUMCON:105:1,2009-10-07T00:00:00Z,29.1874,-90.6654,84.4,1111122 
LUMCON,ioos:station:LUMCON:105:1,2009-10-07T01:00:00Z,29.1874,-90.6654,85.4,1111122 
LUMCON,ioos:station:LUMCON:105:1,2009-10-07T02:00:00Z,29.1874,-90.6654,88.4,1111122 
LUMCON,ioos:station:LUMCON:105:1,2009-10-07T03:00:00Z,29.1874,-90.6654,91.1,1111122 
LUMCON,ioos:station:LUMCON:105:1,2009-10-07T04:00:00Z,29.1874,-90.6654,90.0,1111122 
LUMCON,ioos:station:LUMCON:105:1,2009-10-07T05:00:00Z,29.1874,-90.6654,91.1,1111122 
LUMCON,ioos:station:LUMCON:105:1,2009-10-07T07:00:00Z,29.1874,-90.6654,92.1,1111122 
LUMCON,ioos:station:LUMCON:105:1,2009-10-07T08:00:00Z,29.1874,-90.6654,91.6,1111122 
LUMCON,ioos:station:LUMCON:105:1,2009-10-07T09:00:00Z,29.1874,-90.6654,92.1,1111122 
LUMCON,ioos:station:LUMCON:105:1,2009-10-07T10:00:00Z,29.1874,-90.6654,92.1,1111122 
LUMCON,ioos:station:LUMCON:105:1,2009-10-07T11:00:00Z,29.1874,-90.6654,92.1,1111122 
LUMCON,ioos:station:LUMCON:105:1,2009-10-07T12:00:00Z,29.1874,-90.6654,92.7,1111122 
LUMCON,ioos:station:LUMCON:105:1,2009-10-07T13:00:00Z,29.1874,-90.6654,91.6,1111122 
LUMCON,ioos:station:LUMCON:105:1,2009-10-07T14:00:00Z,29.1874,-90.6654,89.5,1111122 
LUMCON,ioos:station:LUMCON:105:1,2009-10-07T15:00:00Z,29.1874,-90.6654,86.9,1111122 
LUMCON,ioos:station:LUMCON:105:1,2009-10-07T16:00:00Z,29.1874,-90.6654,87.5,1111122 
LUMCON,ioos:station:LUMCON:105:1,2009-10-07T17:00:00Z,29.1874,-90.6654,85.4,1111122 
LUMCON,ioos:station:LUMCON:105:1,2009-10-07T18:00:00Z,29.1874,-90.6654,84.5,1111122 
LUMCON,ioos:station:LUMCON:105:1,2009-10-07T19:00:00Z,29.1874,-90.6654,82.5,1111122 
LUMCON,ioos:station:LUMCON:105:1,2009-10-07T20:00:00Z,29.1874,-90.6654,81.1,1111122 
LUMCON,ioos:station:LUMCON:105:1,2009-10-07T21:00:00Z,29.1874,-90.6654,81.6,1111122 
LUMCON,ioos:station:LUMCON:105:1,2009-10-07T22:00:00Z,29.1874,-90.6654,81.1,1111122 
LUMCON,ioos:station:LUMCON:105:1,2009-10-07T23:00:00Z,29.1874,-90.6654,80.1,1111122 
LUMCON,ioos:station:LUMCON:105:1,2009-10-08T00:00:00Z,29.1874,-90.6654,83.5,1111122 
LUMCON,ioos:station:LUMCON:105:1,2009-10-08T01:00:00Z,29.1874,-90.6654,85.4,1111122 
LUMCON,ioos:station:LUMCON:105:1,2009-10-08T02:00:00Z,29.1874,-90.6654,86.4,1111122 
LUMCON,ioos:station:LUMCON:105:1,2009-10-08T03:00:00Z,29.1874,-90.6654,86.4,1111122 
LUMCON,ioos:station:LUMCON:105:1,2009-10-08T04:00:00Z,29.1874,-90.6654,86.4,1111122 
LUMCON,ioos:station:LUMCON:105:1,2009-10-08T05:00:00Z,29.1874,-90.6654,86.9,1111122 
LUMCON,ioos:station:LUMCON:105:1,2009-10-08T06:00:00Z,29.1874,-90.6654,88.4,1111122 
LUMCON,ioos:station:LUMCON:105:1,2009-10-08T07:00:00Z,29.1874,-90.6654,86.9,1111122 
LUMCON,ioos:station:LUMCON:105:1,2009-10-08T08:00:00Z,29.1874,-90.6654,86.4,1111122 
LUMCON,ioos:station:LUMCON:105:1,2009-10-08T10:00:00Z,29.1874,-90.6654,87.9,1111122 
LUMCON,ioos:station:LUMCON:105:1,2009-10-08T11:00:00Z,29.1874,-90.6654,87.4,1111122 
LUMCON,ioos:station:LUMCON:105:1,2009-10-08T12:00:00Z,29.1874,-90.6654,89.5,1111122 
LUMCON,ioos:station:LUMCON:105:1,2009-10-08T13:00:00Z,29.1874,-90.6654,89.0,1111122 
LUMCON,ioos:station:LUMCON:105:1,2009-10-08T14:00:00Z,29.1874,-90.6654,84.9,1111122 
LUMCON,ioos:station:LUMCON:105:1,2009-10-08T15:00:00Z,29.1874,-90.6654,85.4,1111122 
LUMCON,ioos:station:LUMCON:105:1,2009-10-08T16:00:00Z,29.1874,-90.6654,84.4,1111122 
LUMCON,ioos:station:LUMCON:105:1,2009-10-08T17:00:00Z,29.1874,-90.6654,83.4,1111122 
LUMCON,ioos:station:LUMCON:105:1,2009-10-08T19:00:00Z,29.1874,-90.6654,80.6,1111122 
LUMCON,ioos:station:LUMCON:105:1,2009-10-08T20:00:00Z,29.1874,-90.6654,81.5,1111122 
LUMCON,ioos:station:LUMCON:105:1,2009-10-08T21:00:00Z,29.1874,-90.6654,81.1,1111122 
LUMCON,ioos:station:LUMCON:105:1,2009-10-08T22:00:00Z,29.1874,-90.6654,81.1,1111122 
LUMCON,ioos:station:LUMCON:105:1,2009-10-08T23:00:00Z,29.1874,-90.6654,82.5,1111122 
LUMCON,ioos:station:LUMCON:105:1,2009-10-09T00:00:00Z,29.1874,-90.6654,83.0,1111122 
LUMCON,ioos:station:LUMCON:105:1,2009-10-09T01:00:00Z,29.1874,-90.6654,83.4,1111122 
LUMCON,ioos:station:LUMCON:105:1,2009-10-09T02:00:00Z,29.1874,-90.6654,83.4,1111122 
LUMCON,ioos:station:LUMCON:105:1,2009-10-09T03:00:00Z,29.1874,-90.6654,84.9,1111122 
LUMCON,ioos:station:LUMCON:105:1,2009-10-09T04:00:00Z,29.1874,-90.6654,85.4,1111122 
LUMCON,ioos:station:LUMCON:105:1,2009-10-09T05:00:00Z,29.1874,-90.6654,83.9,1111122 
LUMCON,ioos:station:LUMCON:105:1,2009-10-09T06:00:00Z,29.1874,-90.6654,83.9,1111122 
LUMCON,ioos:station:LUMCON:105:1,2009-10-09T07:00:00Z,29.1874,-90.6654,84.4,1111122 
LUMCON,ioos:station:LUMCON:105:1,2009-10-09T08:00:00Z,29.1874,-90.6654,85.4,1111122 
LUMCON,ioos:station:LUMCON:105:1,2009-10-09T09:00:00Z,29.1874,-90.6654,82.9,1111122 
LUMCON,ioos:station:LUMCON:105:1,2009-10-09T10:00:00Z,29.1874,-90.6654,83.4,1111122 
LUMCON,ioos:station:LUMCON:105:1,2009-10-09T11:00:00Z,29.1874,-90.6654,83.4,1111122 
LUMCON,ioos:station:LUMCON:105:1,2009-10-09T12:00:00Z,29.1874,-90.6654,83.4,1111122 
LUMCON,ioos:station:LUMCON:105:1,2009-10-09T13:00:00Z,29.1874,-90.6654,83.4,1111122 
LUMCON,ioos:station:LUMCON:105:1,2009-10-09T14:00:00Z,29.1874,-90.6654,83.4,1111122 
LUMCON,ioos:station:LUMCON:105:1,2009-10-09T15:00:00Z,29.1874,-90.6654,81.5,1111122 
LUMCON,ioos:station:LUMCON:105:1,2009-10-09T16:00:00Z,29.1874,-90.6654,81.1,1111122 
LUMCON,ioos:station:LUMCON:105:1,2009-10-09T17:00:00Z,29.1874,-90.6654,79.7,1111122 
LUMCON,ioos:station:LUMCON:105:1,2009-10-09T18:00:00Z,29.1874,-90.6654,79.7,1111122 
LUMCON,ioos:station:LUMCON:105:1,2009-10-09T19:00:00Z,29.1874,-90.6654,79.7,1111122 
LUMCON,ioos:station:LUMCON:105:1,2009-10-09T20:00:00Z,29.1874,-90.6654,79.7,1111122 
LUMCON,ioos:station:LUMCON:105:1,2009-10-09T21:00:00Z,29.1874,-90.6654,80.2,1111122 
LUMCON,ioos:station:LUMCON:105:1,2009-10-09T22:00:00Z,29.1874,-90.6654,82.0,1111122 
LUMCON,ioos:station:LUMCON:105:1,2009-10-09T23:00:00Z,29.1874,-90.6654,85.3,1111122 
LUMCON,ioos:station:LUMCON:105:1,2009-10-10T00:00:00Z,29.1874,-90.6654,87.3,1111122 
LUMCON,ioos:station:LUMCON:105:1,2009-10-10T01:00:00Z,29.1874,-90.6654,88.6,1111122 
LUMCON,ioos:station:LUMCON:105:1,2009-10-10T02:00:00Z,29.1874,-90.6654,84.3,1111122 
LUMCON,ioos:station:LUMCON:105:1,2009-10-10T03:00:00Z,29.1874,-90.6654,83.3,1111122 
LUMCON,ioos:station:LUMCON:105:1,2009-10-10T04:00:00Z,29.1874,-90.6654,83.8,1111122 
LUMCON,ioos:station:LUMCON:105:1,2009-10-10T05:00:00Z,29.1874,-90.6654,77.8,1111122 
LUMCON,ioos:station:LUMCON:105:1,2009-10-10T06:00:00Z,29.1874,-90.6654,75.4,1111122 
LUMCON,ioos:station:LUMCON:105:1,2009-10-10T07:00:00Z,29.1874,-90.6654,78.3,1111122 
LUMCON,ioos:station:LUMCON:105:1,2009-10-10T08:00:00Z,29.1874,-90.6654,75.0,1111122 
LUMCON,ioos:station:LUMCON:105:1,2009-10-10T09:00:00Z,29.1874,-90.6654,72.8,1111122 
LUMCON,ioos:station:LUMCON:105:1,2009-10-10T10:00:00Z,29.1874,-90.6654,73.7,1111122 
LUMCON,ioos:station:LUMCON:105:1,2009-10-10T11:00:00Z,29.1874,-90.6654,72.4,1111122 
LUMCON,ioos:station:LUMCON:105:1,2009-10-10T12:00:00Z,29.1874,-90.6654,66.9,1111122 
LUMCON,ioos:station:LUMCON:105:1,2009-10-10T13:00:00Z,29.1874,-90.6654,73.3,1111122 
LUMCON,ioos:station:LUMCON:105:1,2009-10-10T14:00:00Z,29.1874,-90.6654,77.4,1111122 
LUMCON,ioos:station:LUMCON:105:1,2009-10-10T15:00:00Z,29.1874,-90.6654,77.0,1111122 
LUMCON,ioos:station:LUMCON:105:1,2009-10-10T16:00:00Z,29.1874,-90.6654,74.7,1111122 
LUMCON,ioos:station:LUMCON:105:1,2009-10-10T17:00:00Z,29.1874,-90.6654,73.3,1111122 
LUMCON,ioos:station:LUMCON:105:1,2009-10-10T18:00:00Z,29.1874,-90.6654,71.7,1111122 
LUMCON,ioos:station:LUMCON:105:1,2009-10-10T19:00:00Z,29.1874,-90.6654,87.5,1111122 
LUMCON,ioos:station:LUMCON:105:1,2009-10-10T20:00:00Z,29.1874,-90.6654,85.9,1111122 
LUMCON,ioos:station:LUMCON:105:1,2009-10-10T21:00:00Z,29.1874,-90.6654,85.9,1111122 
LUMCON,ioos:station:LUMCON:105:1,2009-10-10T22:00:00Z,29.1874,-90.6654,86.9,1111122 
LUMCON,ioos:station:LUMCON:105:1,2009-10-10T23:00:00Z,29.1874,-90.6654,88.5,1111122 
LUMCON,ioos:station:LUMCON:105:1,2009-10-11T00:00:00Z,29.1874,-90.6654,89.6,1111122 
LUMCON,ioos:station:LUMCON:105:1,2009-10-11T01:00:00Z,29.1874,-90.6654,89.6,1111122 
LUMCON,ioos:station:LUMCON:105:1,2009-10-11T02:00:00Z,29.1874,-90.6654,89.6,1111122 
LUMCON,ioos:station:LUMCON:105:1,2009-10-11T03:00:00Z,29.1874,-90.6654,90.1,1111122 
LUMCON,ioos:station:LUMCON:105:1,2009-10-11T04:00:00Z,29.1874,-90.6654,88.0,1111122 
LUMCON,ioos:station:LUMCON:105:1,2009-10-11T05:00:00Z,29.1874,-90.6654,87.9,1111122 
LUMCON,ioos:station:LUMCON:105:1,2009-10-11T06:00:00Z,29.1874,-90.6654,88.0,1111122 
LUMCON,ioos:station:LUMCON:105:1,2009-10-11T07:00:00Z,29.1874,-90.6654,89.6,1111122 
LUMCON,ioos:station:LUMCON:105:1,2009-10-11T08:00:00Z,29.1874,-90.6654,90.1,1111122 
LUMCON,ioos:station:LUMCON:105:1,2009-10-11T09:00:00Z,29.1874,-90.6654,91.2,1111122 
LUMCON,ioos:station:LUMCON:105:1,2009-10-11T10:00:00Z,29.1874,-90.6654,91.8,1111122 
LUMCON,ioos:station:LUMCON:105:1,2009-10-11T11:00:00Z,29.1874,-90.6654,93.5,1111122 
LUMCON,ioos:station:LUMCON:105:1,2009-10-11T12:00:00Z,29.1874,-90.6654,92.3,1111122 
LUMCON,ioos:station:LUMCON:105:1,2009-10-11T13:00:00Z,29.1874,-90.6654,91.3,1111122 
LUMCON,ioos:station:LUMCON:105:1,2009-10-11T14:00:00Z,29.1874,-90.6654,91.8,1111122 
LUMCON,ioos:station:LUMCON:105:1,2009-10-11T15:00:00Z,29.1874,-90.6654,89.7,1111122 
LUMCON,ioos:station:LUMCON:105:1,2009-10-11T16:00:00Z,29.1874,-90.6654,88.6,1111122 
LUMCON,ioos:station:LUMCON:105:1,2009-10-11T17:00:00Z,29.1874,-90.6654,88.7,1111122 
LUMCON,ioos:station:LUMCON:105:1,2009-10-11T18:00:00Z,29.1874,-90.6654,88.6,1111122 
LUMCON,ioos:station:LUMCON:105:1,2009-10-11T19:00:00Z,29.1874,-90.6654,90.3,1111122 
LUMCON,ioos:station:LUMCON:105:1,2009-10-11T21:00:00Z,29.1874,-90.6654,94.2,1111122 
LUMCON,ioos:station:LUMCON:105:1,2009-10-11T22:00:00Z,29.1874,-90.6654,93.0,1111122 
LUMCON,ioos:station:LUMCON:105:1,2009-10-12T00:00:00Z,29.1874,-90.6654,94.2,1111122 
LUMCON,ioos:station:LUMCON:105:1,2009-10-12T01:00:00Z,29.1874,-90.6654,94.2,1111122 
LUMCON,ioos:station:LUMCON:105:1,2009-10-12T02:00:00Z,29.1874,-90.6654,93.1,1111122 
LUMCON,ioos:station:LUMCON:105:1,2009-10-12T03:00:00Z,29.1874,-90.6654,92.6,1111122 
LUMCON,ioos:station:LUMCON:105:1,2009-10-12T04:00:00Z,29.1874,-90.6654,94.2,1111122 
LUMCON,ioos:station:LUMCON:105:1,2009-10-12T05:00:00Z,29.1874,-90.6654,94.7,1111122 
LUMCON,ioos:station:LUMCON:105:1,2009-10-12T06:00:00Z,29.1874,-90.6654,95.9,1111122 
LUMCON,ioos:station:LUMCON:105:1,2009-10-12T07:00:00Z,29.1874,-90.6654,95.3,1111122 
LUMCON,ioos:station:LUMCON:105:1,2009-10-12T08:00:00Z,29.1874,-90.6654,94.8,1111122 
LUMCON,ioos:station:LUMCON:105:1,2009-10-12T09:00:00Z,29.1874,-90.6654,95.9,1111122 
LUMCON,ioos:station:LUMCON:105:1,2009-10-12T10:00:00Z,29.1874,-90.6654,90.9,1111122 
LUMCON,ioos:station:LUMCON:105:1,2009-10-12T11:00:00Z,29.1874,-90.6654,90.4,1111122 
LUMCON,ioos:station:LUMCON:105:1,2009-10-12T12:00:00Z,29.1874,-90.6654,83.2,1111122 
LUMCON,ioos:station:LUMCON:105:1,2009-10-12T13:00:00Z,29.1874,-90.6654,90.4,1111122 
LUMCON,ioos:station:LUMCON:105:1,2009-10-12T14:00:00Z,29.1874,-90.6654,90.4,1111122 
LUMCON,ioos:station:LUMCON:105:1,2009-10-12T15:00:00Z,29.1874,-90.6654,89.4,1111122 
LUMCON,ioos:station:LUMCON:105:1,2009-10-12T16:00:00Z,29.1874,-90.6654,87.3,1111122 
LUMCON,ioos:station:LUMCON:105:1,2009-10-31T01:00:00Z,29.1874,-90.6654,93.2,1111122 
LUMCON,ioos:station:LUMCON:105:1,2009-10-31T02:00:00Z,29.1874,-90.6654,92.0,1111122 
LUMCON,ioos:station:LUMCON:105:1,2009-10-31T03:00:00Z,29.1874,-90.6654,90.2,1111122 
LUMCON,ioos:station:LUMCON:105:1,2009-10-31T04:00:00Z,29.1874,-90.6654,92.6,1111122 
LUMCON,ioos:station:LUMCON:105:1,2009-10-31T05:00:00Z,29.1874,-90.6654,93.1,1111122 
LUMCON,ioos:station:LUMCON:105:1,2009-10-31T06:00:00Z,29.1874,-90.6654,94.3,1111122 
LUMCON,ioos:station:LUMCON:105:1,2009-10-31T07:00:00Z,29.1874,-90.6654,91.9,1111122 
LUMCON,ioos:station:LUMCON:105:1,2009-10-31T08:00:00Z,29.1874,-90.6654,91.8,1111122 